Waupaca, WI

6:45 AM CST on November 17, 2019 (GMT -0600)
Waupaca Municipal

Weather History for KPCZ - September, 2019

Change the Weather History Date:

Friday, September 13, 2019

  Actual Average Record
Temperature  
Mean Temperature 64 °F -  
Max Temperature 70 °F 72 °F 90 °F (1952)
Min Temperature 59 °F 51 °F 32 °F (1963)
Growing Degree Days 14 (Base 50)    
Moisture  
Dew Point 59 °F    
Average Humidity 80    
Maximum Humidity 98    
Minimum Humidity 54    
Precipitation  
Precipitation 0.07 in - - ()
Sea Level Pressure  
Sea Level Pressure 29.93 in    
Wind  
Wind Speed 10 mph (SW)    
Max Wind Speed 24 mph    
Max Gust Speed 33 mph    
Visibility 10 miles    
Events Rain    
Averages and records for this station are not official NWS values.
T = Trace of Precipitation, MM = Missing Value Source: NWS Daily Summary

Daily Weather History Graph

Daily Weather History Graph

Search for Another Location

Airport or City:

Astronomy

Sep. 13, 2019 Rise Set
Actual Time 6:32 AM CDT 7:10 PM CDT
Civil Twilight 6:03 AM CDT 7:39 PM CDT
Nautical Twilight 5:28 AM CDT 8:14 PM CDT
Astronomical Twilight 4:52 AM CDT 8:50 PM CDT
Moon 7:26 PM CDT (9/13) 5:45 AM CDT (9/13)
Length of Visible Light 13h 36m
Length of Day
12h 38m
Full, 100% of the Moon is Illuminated
Sep 13
Full
Sep 13
Full
Sep 21
Last Quarter
Sep 28
New
Oct 5
First Quarter

Hourly Weather History & Observations

Time (CDT) Temp. Dew Point Humidity Pressure Visibility Wind Dir Wind Speed Gust Speed Precip Events Conditions
12:15 AM 64.4 °F 63.7 °F 98% 29.93 in 10.0 mi ESE 4.6 mph - N/A   Overcast
12:35 AM 64.8 °F 64.0 °F 98% 29.91 in 10.0 mi ESE 4.6 mph - N/A Rain Light Rain
12:55 AM 66.0 °F 65.3 °F 98% 29.91 in 10.0 mi SE 6.9 mph - N/A Rain Light Rain
1:15 AM 66.2 °F 65.3 °F 97% 29.90 in 7.0 mi ESE 6.9 mph - 0.05 in Rain Light Rain
1:35 AM 66.2 °F 65.3 °F 97% 29.89 in 10.0 mi SE 4.6 mph - 0.06 in   Overcast
1:55 AM 66.2 °F 65.3 °F 97% 29.88 in 10.0 mi SE 5.8 mph - 0.07 in   Overcast
2:15 AM 66.2 °F 65.5 °F 98% 29.88 in 10.0 mi SE 8.1 mph - N/A   Overcast
2:35 AM 66.4 °F 65.7 °F 98% 29.87 in 10.0 mi SSE 5.8 mph - N/A   Overcast
2:55 AM 67.1 °F 66.4 °F 98% 29.87 in 10.0 mi SSE 6.9 mph - N/A   Overcast
3:15 AM 67.5 °F 66.7 °F 98% 29.87 in 10.0 mi South 6.9 mph - N/A   Overcast
3:35 AM 68.4 °F 67.6 °F 98% 29.87 in 10.0 mi South 8.1 mph - N/A   Overcast
3:55 AM 68.9 °F 68.0 °F 97% 29.87 in 10.0 mi South 9.2 mph - N/A   Overcast
4:15 AM 69.3 °F 68.5 °F 98% 29.88 in 10.0 mi South 9.2 mph - N/A   Overcast
4:35 AM 69.3 °F 68.5 °F 98% 29.87 in 10.0 mi South 8.1 mph - N/A   Overcast
4:55 AM 69.3 °F 68.5 °F 98% 29.87 in 10.0 mi SSW 8.1 mph 16.1 mph N/A   Overcast
5:15 AM 69.3 °F 68.4 °F 97% 29.87 in 10.0 mi SSW 5.8 mph - N/A   Mostly Cloudy
5:35 AM 68.4 °F 67.5 °F 97% 29.87 in 10.0 mi SSW 5.8 mph - N/A   Scattered Clouds
5:55 AM 67.6 °F 66.7 °F 97% 29.87 in 10.0 mi SSW 4.6 mph - N/A   Clear
6:15 AM 67.5 °F 66.6 °F 97% 29.87 in 10.0 mi SSW 4.6 mph - N/A   Clear
6:35 AM 66.4 °F 65.5 °F 97% 29.87 in 10.0 mi SSW 4.6 mph - N/A   Clear
6:55 AM 66.2 °F 65.3 °F 97% 29.87 in 10.0 mi South 5.8 mph - N/A   Scattered Clouds
7:15 AM 66.6 °F 65.8 °F 98% 29.88 in 10.0 mi SSW 5.8 mph - N/A   Scattered Clouds
7:35 AM 67.5 °F 66.7 °F 98% 29.88 in 10.0 mi SSW 5.8 mph - N/A   Clear
7:55 AM 67.6 °F 67.1 °F 98% 29.88 in 10.0 mi South 5.8 mph - N/A   Clear
8:15 AM 68.4 °F 67.5 °F 97% 29.88 in 10.0 mi South 9.2 mph - N/A   Scattered Clouds
8:35 AM 69.3 °F 66.0 °F 89% 29.88 in 10.0 mi SSW 8.1 mph - N/A   Clear
8:55 AM 70.2 °F 64.2 °F 81% 29.87 in 10.0 mi SSW 10.4 mph 16.1 mph N/A   Scattered Clouds
9:15 AM 70.5 °F 64.4 °F 81% 29.88 in 10.0 mi SSW 16.1 mph - N/A   Scattered Clouds
9:35 AM 70.5 °F 62.4 °F 75% 29.88 in 10.0 mi SSW 16.1 mph 19.6 mph N/A   Mostly Cloudy
9:55 AM 69.3 °F 61.5 °F 76% 29.89 in 10.0 mi WSW 20.7 mph 25.3 mph N/A   Mostly Cloudy
10:15 AM 69.3 °F 60.8 °F 74% 29.90 in 10.0 mi SW 16.1 mph 23.0 mph N/A   Mostly Cloudy
10:35 AM 68.0 °F 58.8 °F 72% 29.90 in 10.0 mi SW 18.4 mph 24.2 mph N/A   Mostly Cloudy
10:55 AM 66.9 °F 58.3 °F 74% 29.90 in 10.0 mi WSW 16.1 mph 24.2 mph N/A   Overcast
11:15 AM 66.2 °F 59.0 °F 78% 29.90 in 10.0 mi SW 12.7 mph 21.9 mph N/A   Overcast
11:35 AM 67.1 °F 59.0 °F 75% 29.90 in 10.0 mi SW 17.3 mph 25.3 mph N/A   Overcast
11:55 AM 67.5 °F 58.8 °F 74% 29.90 in 10.0 mi SW 15.0 mph 24.2 mph N/A   Overcast
12:15 PM 68.9 °F 58.6 °F 70% 29.90 in 10.0 mi WSW 15.0 mph 21.9 mph N/A   Overcast
12:35 PM 69.4 °F 58.3 °F 68% 29.90 in 10.0 mi SW 19.6 mph 25.3 mph N/A   Overcast
12:55 PM 68.4 °F 57.7 °F 69% 29.91 in 10.0 mi WSW 19.6 mph 28.8 mph N/A   Overcast
1:15 PM 67.3 °F 57.9 °F 72% 29.91 in 10.0 mi WSW 21.9 mph 28.8 mph N/A   Mostly Cloudy
1:35 PM 65.3 °F 54.1 °F 67% 29.91 in 10.0 mi SW 18.4 mph 28.8 mph N/A   Mostly Cloudy
1:55 PM 68.4 °F 54.0 °F 60% 29.92 in 10.0 mi WSW 24.2 mph 31.1 mph N/A   Mostly Cloudy
2:15 PM 67.5 °F 53.2 °F 60% 29.92 in 10.0 mi WSW 19.6 mph 27.6 mph N/A   Scattered Clouds
2:35 PM 69.3 °F 52.2 °F 54% 29.92 in 10.0 mi WSW 16.1 mph 28.8 mph N/A   Scattered Clouds
2:55 PM 69.1 °F 52.2 °F 55% 29.93 in 10.0 mi WSW 23.0 mph 33.4 mph N/A   Mostly Cloudy
3:15 PM 68.4 °F 51.8 °F 55% 29.94 in 10.0 mi WSW 19.6 mph 28.8 mph N/A   Scattered Clouds
3:35 PM 67.3 °F 51.6 °F 57% 29.95 in 10.0 mi WSW 17.3 mph 29.9 mph N/A   Mostly Cloudy
3:55 PM 65.1 °F 50.7 °F 60% 29.96 in 10.0 mi WSW 18.4 mph 28.8 mph N/A   Overcast
4:15 PM 64.8 °F 51.3 °F 62% 29.96 in 10.0 mi West 16.1 mph 24.2 mph N/A   Overcast
4:35 PM 64.0 °F 52.5 °F 66% 29.98 in 10.0 mi WSW 17.3 mph 25.3 mph N/A   Overcast
4:55 PM 63.7 °F 52.9 °F 68% 29.98 in 10.0 mi WSW 11.5 mph - N/A   Overcast
5:15 PM 63.1 °F 52.2 °F 67% 29.98 in 10.0 mi WSW 11.5 mph 17.3 mph N/A   Overcast
5:35 PM 62.2 °F 52.7 °F 71% 29.99 in 10.0 mi WSW 15.0 mph 21.9 mph N/A   Overcast
5:55 PM 62.2 °F 52.7 °F 71% 30.00 in 7.0 mi West 11.5 mph 18.4 mph N/A   Overcast
6:15 PM 59.9 °F 55.2 °F 84% 30.00 in 10.0 mi WSW 9.2 mph - N/A   Overcast
6:35 PM 60.1 °F 54.3 °F 81% 30.00 in 10.0 mi WSW 12.7 mph - N/A   Overcast
6:55 PM 59.4 °F 54.7 °F 84% 30.01 in 7.0 mi West 8.1 mph - N/A   Overcast
7:15 PM 60.1 °F 52.7 °F 77% 30.01 in 10.0 mi WSW 12.7 mph 23.0 mph N/A   Overcast
7:35 PM 60.4 °F 52.2 °F 74% 30.01 in 10.0 mi West 13.8 mph 24.2 mph N/A   Overcast
7:55 PM 60.6 °F 52.2 °F 74% 30.02 in 10.0 mi WSW 13.8 mph 21.9 mph N/A   Overcast
8:15 PM 60.4 °F 52.5 °F 75% 30.02 in 10.0 mi WSW 9.2 mph - N/A   Overcast
8:35 PM 61.2 °F 51.3 °F 70% 30.03 in 10.0 mi WSW 12.7 mph 20.7 mph N/A   Overcast
8:55 PM 61.2 °F 50.7 °F 69% 30.03 in 10.0 mi West 15.0 mph 21.9 mph N/A   Overcast
9:15 PM 60.8 °F 50.7 °F 69% 30.04 in 10.0 mi West 13.8 mph 21.9 mph N/A   Overcast
9:35 PM 60.8 °F 50.4 °F 68% 30.04 in 10.0 mi West 13.8 mph 24.2 mph N/A   Overcast
9:55 PM 60.8 °F 50.0 °F 68% 30.05 in 10.0 mi West 11.5 mph 20.7 mph N/A   Overcast
10:15 PM 60.4 °F 50.2 °F 69% 30.05 in 10.0 mi West 10.4 mph 17.3 mph N/A   Overcast
10:35 PM 60.6 °F 50.0 °F 68% 30.06 in 10.0 mi WSW 11.5 mph 17.3 mph N/A   Overcast
10:55 PM 60.3 °F 50.5 °F 70% 30.06 in 10.0 mi WSW 10.4 mph 17.3 mph N/A   Overcast
11:35 PM 60.3 °F 50.4 °F 70% 30.07 in 10.0 mi West 10.4 mph 16.1 mph N/A   Overcast
11:55 PM 60.1 °F 50.2 °F 70% 30.08 in 10.0 mi West 12.7 mph 16.1 mph N/A   Overcast